Home > Weather > Bakersfield > Past weeks

Flag for U.S.A. Weather for the Past 2 Weeks in Bakersfield, California, U.S.A.

Now
56 °F

Clear.


Feels Like: 56 °F
Forecast: 48 / 76 °F
Wind: 3 mph from South

Location: Meadows Field

Current Time: Feb 10, 2016 at 1:57:43 AM

Latest Report: Feb 10, 2016 at 12:54 AM


Visibility: 6 mi

Pressure: 30.23 "Hg

Humidity: 75%

Dew point: 48 °F

Location of BakersfieldLocation

Historic Weather in Bakersfield — Graph

°F

Bakersfield Temperature Yesterday

Maximum temperature yesterday: 78 °F (at 1:54 PM)
Minimum temperature yesterday: 44 °F (at 4:54 AM)
Average temperature yesterday: 59 °F

High & Low Weather Summary for the Past Weeks

 TemperatureHumidityPressure
High78 °F (Feb 9, 1:54 PM)97% (Jan 31, 4:59 AM)30.46 "Hg (Jan 31, 4:59 AM)
Low34 °F (Feb 3, 6:54 AM)25% (Feb 9, 2:54 PM)29.65 "Hg (Jan 31, 11:54 AM)
Average50 °F69%30.23 "Hg
* Reported Jan 26 12:54 AM — Feb 10 12:54 AM, Bakersfield, Weather by CustomWeather, © 2016

Note: Actual official high and low records may vary slightly from our data, if they occured in-between our weather recording intervals... More about our weather records

Advertising

Bakersfield Weather History for the Previous 24 Hours

 ConditionsComfort  
Time TempWeatherWind HumidityBarometerVisibility
12:54 AM
Wed, Feb 10
56 °FClear.3 mph75%30.23 "Hg6 mi
11:54 PM
Tue, Feb 9
56 °FClear.No wind75%30.22 "Hg6 mi
10:54 PM57 °FClear.No wind74%30.21 "Hg6 mi
9:54 PM58 °FClear.7 mph72%30.18 "Hg6 mi
8:54 PM60 °FClear.3 mph67%30.17 "Hg6 mi
7:54 PM61 °FClear.6 mph62%30.15 "Hg10 mi
6:54 PM62 °FClear.9 mph62%30.15 "Hg10 mi
5:54 PM65 °FClear.7 mph56%30.13 "Hg9 mi
4:54 PM73 °FSunny.6 mph44%30.11 "Hg9 mi
3:54 PM78 °FSunny.No wind30%30.13 "Hg10 mi
2:54 PM78 °FSunny.10 mph25%30.14 "Hg10 mi
1:54 PM78 °FSunny.10 mph32%30.14 "Hg10 mi
12:54 PM75 °FSunny.7 mph34%30.17 "Hg10 mi
11:54 AM71 °FSunny.6 mph39%30.20 "Hg9 mi
10:54 AM64 °FSunny.3 mph56%30.23 "Hg7 mi
9:54 AM59 °FSunny.No wind60%30.25 "Hg7 mi
8:54 AM53 °FSunny.5 mph66%30.25 "Hg10 mi
7:54 AM50 °FSunny.No wind71%30.24 "Hg10 mi
6:54 AM44 °FSunny.No wind79%30.23 "Hg9 mi
5:54 AM47 °FClear.5 mph77%30.22 "Hg10 mi
4:54 AM44 °FClear.No wind79%30.20 "Hg10 mi
3:54 AM46 °FClear.3 mph73%30.19 "Hg10 mi
2:54 AM45 °FClear.No wind80%30.19 "Hg10 mi
1:54 AM49 °FClear.No wind71%30.20 "Hg10 mi
Weather by CustomWeather, © 2016

See weather overviewHow to use our weather pages